Regional Weather Roundup
Issued by NWS Wakefield, VA

Home | Current Version | Previous Version | Graphics & Text | Print | Product List | Glossary On
Versions: 1 2 3 4 5 6 7 8 9 10 11 12 13 14 15 16 17 18 19 20 21 22 23 24 25 26 27 28 29 30 31 32 33 34 35 36 37 38 39 40 41 42 43 44 45 46 47 48 49 50
000
ASUS41 KAKQ 160710
RWRAKQ

REGIONAL WEATHER ROUNDUP
NATIONAL WEATHER SERVICE WAKEFIELD VA
300 AM EDT TUE SEP 16 2014

Note: "fair" indicates few or no clouds below 12,000 feet with no
significant weather and/or obstructions to visibility. * = Denotes
station may not report precipitation (e.g., rain,snow,etc.),
thunder or fog.

VAZ042-051-052>054-056-160800-
NORTHERN VIRGINIA

CITY           SKY/WX    TMP DP  RH WIND       PRES   REMARKS
WASH NATIONAL  CLOUDY    68  61  78 S6        30.02F
DULLES         CLOUDY    62  59  90 CALM      30.02F
FORT BELVOIR   MOCLDY    62  61  94 CALM      30.02F
QUANTICO       MOCLDY    67  61  81 SW6       30.02F
FREDERICKSBRG* MOCLDY    67  62  85 S3        30.01F
STAFFORD*      MOCLDY    64  64 100 CALM      30.06F
WARRENTON      MOCLDY    63  63 100 S3        30.00F
CULPEPER*      MOCLDY   N/A N/A N/A CALM      30.02F
MANASSAS*      CLOUDY    63  63 100 CALM      30.01F
LEESBURG*      MOCLDY    63  61  94 CALM      30.03S
WINCHESTER     MOCLDY    59  55  88 CALM      30.03S
FRONT ROYAL*   CLOUDY    59  57  94 CALM      30.03S
LURAY*         CLOUDY    61  61 100 SE3       30.03F
$$

VAZ048-049-060>072-079>083-160800-
CENTRAL AND SOUTH CENTRAL VIRGINIA...AND NORTH CENTRAL NORTH CAROLINA

CITY           SKY/WX    TMP DP  RH WIND       PRES   REMARKS
RICHMOND       CLOUDY    67  63  87 S3        30.04S
CHESTERFIELD*  CLOUDY   N/A N/A N/A SW3       30.05F
PETERSBURG*    CLOUDY    63  62  95 CALM      30.05F
HANOVER        CLOUDY    67  63  87 S5        30.05F
TAPPAHANNOCK*  CLOUDY    65  61  86 CALM      30.05F
CHARLOTTSVILLE CLOUDY    64  62  93 S5        30.02F
ORANGE*        CLOUDY    63  61  94 S3        30.03F
LOUISA*        MOCLDY    64  63  94 SW3       30.02F
FARMVILLE*     MOCLDY    66  64  94 CALM      30.02S
CREWE*         CLOUDY    69  66  91 SW7       30.04F
FORT PICKETT*  CLOUDY    64  63  98 SW5       30.05F
LUNENBURG*     CLOUDY    66  65  97 SW3       30.05F
SOUTH HILL*    CLOUDY    66  66 100 SW6       30.10F FOG
LAWRENCEVILLE* CLOUDY    64  64  99 CALM      30.05S
ROANOKE RAPIDS CLOUDY    64  63  94 CALM      30.06S
RALEIGH        CLOUDY    68  65  90 W5        30.07F
$$

VAZ088>098-160800-
SOUTHEAST VIRGINIA

CITY           SKY/WX    TMP DP  RH WIND       PRES   REMARKS
NORFOLK        MOCLDY    67  60  78 S7        30.04F
VIRGINIA BEACH CLOUDY    67  61  81 SW6       30.04F
NORFOLK NAVAL  CLOUDY    69  61  75 S3        30.06F
WEST POINT*    NOT AVBL
NEWPORT NEWS   CLOUDY    71  62  73 SW7       30.04F
LANGLEY AFB    CLOUDY    68  63  85 SW7       30.04F
FORT EUSTIS    CLOUDY    68  68 100 S5        30.03F
WILLIAMSBURG*  CLOUDY    70  64  83 S5        30.06S
HR EXEC AP*    PTSUNNY   64  61  88 S3        30.07S
FRANKLIN*        N/A     66  64  94 S3        30.05F
WAKEFIELD      CLOUDY    65  62  90 S3        30.05F
$$

VAZ020-022-025-037-045-160800-
WEST CENTRAL AND SOUTHWEST VIRGINIA

CITY           SKY/WX    TMP DP  RH WIND       PRES   REMARKS
STAUNTON*      CLOUDY    60  57  90 CALM      30.06F FOG
HOT SPRINGS VA CLOUDY    55  44  64 W18G24    30.14S
LYNCHBURG      MOCLDY    62  62 100 CALM      30.05F
DANVILLE       PTCLDY    66  63  90 SW6       30.06F
SOUTH BOSTON*  NOT AVBL
MARTINSVILLE   PTCLDY    66  66 100 SW5       30.08F
ROANOKE        MOCLDY    64  60  87 W5        30.07S
BLACKSBURG     PTCLDY    63  63 100 CALM      30.12S FOG
DUBLIN*        PTCLDY    62  62 100 CALM      30.11S
MARION*        CLOUDY    62  60  94 W8        30.16S
HILLSVILLE*    MOCLDY    59  59  99 SW6       30.13F FOG
RICHLANDS*     CLOUDY    65  63  91 W8        30.14S
WISE*          CLOUDY    61  61 100 SW8       30.15F
ABINGDON*      CLOUDY    64  64 100 CALM      30.13F FOG
$$

MDZ021>025-VAZ099-100-160800-
SOUTHERN MARYLAND AND THE DELMARVA PENINSULA

CITY           SKY/WX    TMP DP  RH WIND       PRES   REMARKS
PATUXENT RIVER CLOUDY    66  62  87 SW6       30.02F
BAY BRIDGE APT   N/A     68  61  77 S5        30.02F
LEONARDTOWN    CLOUDY    64  61  88 SW5       30.04F
DOVER          CLOUDY    60  57  87 S5        30.02F
GEORGETOWN     CLOUDY    59  56  89 SE3       30.05F
EASTON         MOCLDY    62  62 100 CALM      30.07F
CAMBRIDGE      MOCLDY    61  59  94 CALM      30.03S
SALISBURY        N/A    N/A N/A N/A MISG        N/A
OCEAN CITY     CLOUDY    62  58  86 CALM      30.04F
WALLOPS ISLAND MOCLDY    66  62  87 SW5       30.05S
ACCOMACK*      MOCLDY    61  59  94 SW3       30.05R
$$

NCZ012>017-030>032-160800-
EASTERN NORTH CAROLINA

CITY           SKY/WX    TMP DP  RH WIND       PRES   REMARKS
ELIZABETH CITY CLOUDY    69  64  84 S7        30.06F
AHOSKIE*       CLOUDY    65  64  95 CALM      30.06F
EDENTON*       CLOUDY    70  65  84 S6        30.07S
CURRITUCK*     CLOUDY    68  62  82 CALM      30.06F
KILL DEVIL HLS CLOUDY    70  62  75 CALM      30.05S
MANTEO         CLOUDY    72  63  73 S5        30.06F
CAPE HATTERAS  CLOUDY    65  64  97 CALM      30.06F
TARBORO*       CLOUDY    69  65  89 CALM      30.07F
GOLDSBORO      CLOUDY    69  68  98 S2        30.05F
WASHINGTON     CLOUDY    69  66  90 CALM      30.07F
GREENVILLE     CLOUDY    70  68  94 CALM      30.08F
NEW BERN       MOCLDY    71  66  84 S3        30.07F
WILMINGTON     CLOUDY    72  68  87 CALM      30.06F
$$

VAZ048-160800-
ELSEWHERE

CITY           SKY/WX    TMP DP  RH WIND       PRES   REMARKS
HARRISBURG PA  CLOUDY    57  52  83 CALM      30.01F
BALTIMORE      MOCLDY    61  58  90 CALM      30.01F
ANNAPOLIS      CLOUDY    66  61  84 S7        30.01F
ANDREWS AFB    PTCLDY    61  60  98 S7        30.01F
WILMINGTON DE  CLOUDY    60  57  89 N3        30.04F
PHILADELPHIA   PTCLDY    60  53  77 SE5       30.04F
WILDWOOD NJ*   CLOUDY    59  54  82 CALM      30.06S
ATLANTIC CITY  MOCLDY    55  53  93 CALM      30.06F
HENDERSON NC   CLOUDY    66  64  95 SW6       30.06F FOG
GREENSBORO     CLOUDY    68  66  93 SW7       30.06F
ROCKY MOUNT    CLOUDY    67  65  93 CALM      30.06F
FAYETTEVILLE   CLOUDY    70  69  97 S3        30.06F
CHARLOTTE      CLOUDY    70  68  93 CALM      30.09F
$$

VAZ100-160800-
MARINE

STATION/POSITION TIME  TEMP    WIND        PRES    WAVE   SWELL
                       AIR SEA DIR/SP/G            HT/PER HT/PER
                 (UTC) (F)     (DEG/KT/KT) (MB)    (FT/S) (FT/S)
44066 TX TWR #4  0700   66 73  280/  6/  8 1017.4F   2/ 7   2/ 7
CAPE MAY NJ      0700   67                   N/A
LEWES DE         0700   63                   N/A
15NM E FENWICK I 0700   68 72              1017.4F   2/ 7
OCEAN-CITY-INLET 0700   69                   N/A
WACHAPREAGUE VA  0700   68                   N/A
THOMAS POINT MD  0700   68 74  200/ 13/ 14 1017.3F
GOOSES REEF MD   0700   69     230/ 10/ 14 1017.4F
COVE POINT MD    0700   66                   N/A
SOLOMONS ISLAND  0600      76                N/A
BISHOPS HEAD MD  0700   70                   N/A
POTOMAC MD       0700   68     240/ 12/ 17 1016.8S
CAMBRIDGE MD     0700   66                   N/A
LEWISETTA VA     0700   66                   N/A
STINGRAY PT      0700   70     220/ 10/ 12   N/A
YORK RVR RNG VA  0700   69                   N/A
YORKTOWN VA      0700   68                   N/A
JAMESTOWN VA     0700   69     210/  6/  8   N/A
DOMINION TERM VA 0700   68                   N/A
KIPTOPEKE VA     0600      78                N/A
CHES BAY BRIDGE  0700   69                   N/A
CAPE HENRY VA    0700   67                   N/A
CHESAPEAKE LGHT  0600   71     190/ 13/ 14 1018.3F
WILLOUBY STN VA  0700   70                   N/A
CAPE HENRY BUOY  0700      76                N/A     2/13   2/13
1ST LANDING BUOY 0700   69     190/ 10/ 12 1017.1S
CAPE CHARLES BUO 0700      75                N/A     2/13   2/13
OFFSHORE WE BUOY 0700      74                N/A     2/ 7   2/ 7
64NM E OF VA BCH 0700   72 79  180/  8/ 10 1017.2F   2/ 7   2/ 7
DUCK PIER NC     0700   71                   N/A
44100 DUCK FRF   0700      74                N/A     2/ 7
44056 DUCK FRF   0600                        N/A     2/13
OREGON INLET NC  0700   71                   N/A
HATTERAS NC      0700   72                   N/A
DIAMOND SHLS NC  0700   74     310/  4/  6 1017.9F   2/ 8   2/ 8
CAPE LOOKOUT NC  0700   75     130/  6/  6 1017.5F
$$



USA.gov is the U.S. government's official web portal to all federal, state and local government web resources and services.